カタログに戻る

OPS 0856 DEB

LostPO
NORAD 25097·DEBRIS·🇺🇸 United States

打ち上げ Aug 19, 1966 から Vandenberg Space Force Base

Loading…

次のパス (今後24時間)

TLE

古いSource: Space-Track

元期: May 7, 2026, 23:42 UTC

1 25097U 66077S   26127.98757049 -.00000665  00000-0 -27693-1 0  9993
2 25097  88.2341 133.6972 1992327  68.6249 311.4962  8.93472887345789

AllMySatでOPS 0856 DEBをリアルタイム追跡

Download on the App Store